Hourly Weather Bolshie Leskovichi

Today, 23 June, Wednesday

Time Temperature Precipitation Wind Pressure Humidity
00:00 +23°C° 0.1 mm 1 mps 746 mmHg 86%
01:00 +22°C° 0.1 mm 1 mps 747 mmHg 87%
02:00 +22°C° 0 mm 1 mps 747 mmHg 88%
03:00 +22°C° 0 mm 1 mps 747 mmHg 88%
04:00 +22°C° 0 mm 1 mps 747 mmHg 89%
05:00 +22°C° 0 mm 1 mps 747 mmHg 89%
06:00 +23°C° 0 mm 2 mps 747 mmHg 85%
07:00 +25°C° 0 mm 2 mps 748 mmHg 81%
08:00 +26°C° 0 mm 3 mps 748 mmHg 76%
09:00 +27°C° 0 mm 2 mps 748 mmHg 72%
10:00 +29°C° 0 mm 2 mps 749 mmHg 67%
11:00 +30°C° 0 mm 2 mps 749 mmHg 62%
12:00 +31°C° 0 mm 2 mps 749 mmHg 59%
13:00 +31°C° 0 mm 2 mps 749 mmHg 57%
14:00 +32°C° 0 mm 2 mps 749 mmHg 54%
15:00 +32°C° 0 mm 2 mps 749 mmHg 54%
16:00 +32°C° 0 mm 1 mps 749 mmHg 54%
17:00 +33°C° 0 mm 1 mps 749 mmHg 54%
18:00 +31°C° 0 mm 1 mps 749 mmHg 60%
19:00 +30°C° 0 mm 1 mps 749 mmHg 67%
20:00 +28°C° 0 mm 1 mps 749 mmHg 73%
21:00 +27°C° 0.4 mm 1 mps 749 mmHg 77%
22:00 +26°C° 0.4 mm 1 mps 749 mmHg 81%
23:00 +24°C° 0.4 mm 1 mps 749 mmHg 84%

Tomorrow, 24 June, Thursday

Time Temperature Precipitation Wind Pressure Humidity
00:00 +24°C° 0.1 mm 1 mps 749 mmHg 85%
01:00 +24°C° 0.1 mm 2 mps 749 mmHg 86%
02:00 +23°C° 0.1 mm 2 mps 749 mmHg 86%
03:00 +23°C° 0 mm 1 mps 749 mmHg 86%
04:00 +23°C° 0 mm 1 mps 749 mmHg 86%
05:00 +21°C° 0 mm 0 mps 749 mmHg 85%
06:00 +25°C° 0 mm 1 mps 749 mmHg 82%
07:00 +26°C° 0 mm 1 mps 749 mmHg 79%
08:00 +27°C° 0 mm 1 mps 749 mmHg 76%
09:00 +28°C° 0 mm 2 mps 749 mmHg 72%
10:00 +29°C° 0 mm 2 mps 749 mmHg 68%
11:00 +30°C° 0 mm 3 mps 749 mmHg 64%
12:00 +31°C° 0 mm 2 mps 749 mmHg 62%
13:00 +31°C° 0 mm 2 mps 749 mmHg 59%
14:00 +32°C° 0 mm 2 mps 748 mmHg 57%
15:00 +32°C° 0 mm 2 mps 748 mmHg 57%
16:00 +32°C° 0 mm 2 mps 748 mmHg 57%
17:00 +32°C° 0 mm 2 mps 747 mmHg 57%
18:00 +31°C° 0 mm 2 mps 747 mmHg 62%
19:00 +29°C° 0 mm 2 mps 747 mmHg 68%
20:00 +28°C° 0 mm 2 mps 747 mmHg 73%
21:00 +27°C° 0.5 mm 2 mps 747 mmHg 77%
22:00 +25°C° 0.5 mm 2 mps 747 mmHg 81%
23:00 +24°C° 0.5 mm 2 mps 747 mmHg 85%

Day after tomorrow, 25 June, Friday

Time Temperature Precipitation Wind Pressure Humidity
00:00 +23°C° 0.3 mm 2 mps 747 mmHg 88%
01:00 +23°C° 0.3 mm 2 mps 746 mmHg 90%
02:00 +22°C° 0.3 mm 1 mps 746 mmHg 92%
03:00 +21°C° 0.1 mm 2 mps 746 mmHg 93%
04:00 +21°C° 0.1 mm 2 mps 746 mmHg 93%
05:00 +21°C° 0.1 mm 2 mps 746 mmHg 93%
06:00 +24°C° 0 mm 2 mps 746 mmHg 89%
07:00 +25°C° 0 mm 2 mps 746 mmHg 86%
08:00 +26°C° 0 mm 2 mps 746 mmHg 82%
09:00 +27°C° 0 mm 2 mps 746 mmHg 76%
10:00 +28°C° 0 mm 2 mps 746 mmHg 70%
11:00 +29°C° 0 mm 3 mps 746 mmHg 65%
12:00 +30°C° 0.2 mm 3 mps 746 mmHg 63%
13:00 +31°C° 0.2 mm 3 mps 746 mmHg 61%
14:00 +33°C° 0.2 mm 3 mps 746 mmHg 60%
15:00 +31°C° 1.3 mm 3 mps 745 mmHg 64%
16:00 +30°C° 1.3 mm 3 mps 745 mmHg 69%
17:00 +29°C° 1.3 mm 4 mps 744 mmHg 73%
18:00 +27°C° 1.7 mm 4 mps 745 mmHg 79%
19:00 +23°C° 1.7 mm 4 mps 745 mmHg 86%
20:00 +21°C° 1.7 mm 4 mps 745 mmHg 92%
21:00 +20°C° 0.3 mm 4 mps 745 mmHg 93%
22:00 +20°C° 0.3 mm 4 mps 746 mmHg 94%
23:00 +20°C° 0.3 mm 3 mps 746 mmHg 96%

26 June, Saturday

Time Temperature Precipitation Wind Pressure Humidity
00:00 +19°C° 0 mm 4 mps 746 mmHg 95%
01:00 +19°C° 0 mm 4 mps 746 mmHg 95%
02:00 +19°C° 0 mm 4 mps 746 mmHg 94%
03:00 +18°C° 0 mm 3 mps 746 mmHg 95%
04:00 +17°C° 0 mm 3 mps 746 mmHg 95%
05:00 +16°C° 0 mm 3 mps 747 mmHg 96%
06:00 +17°C° 0 mm 3 mps 747 mmHg 92%
07:00 +18°C° 0 mm 4 mps 747 mmHg 88%
08:00 +19°C° 0 mm 4 mps 747 mmHg 84%
09:00 +20°C° 0 mm 4 mps 748 mmHg 81%
10:00 +20°C° 0 mm 5 mps 748 mmHg 77%
11:00 +21°C° 0 mm 5 mps 748 mmHg 73%
12:00 +21°C° 0 mm 5 mps 748 mmHg 72%
13:00 +22°C° 0 mm 5 mps 748 mmHg 70%
14:00 +22°C° 0 mm 5 mps 748 mmHg 69%
15:00 +22°C° 0 mm 4 mps 748 mmHg 70%
16:00 +22°C° 0 mm 4 mps 748 mmHg 72%
17:00 +21°C° 0 mm 4 mps 748 mmHg 73%
18:00 +21°C° 0 mm 3 mps 748 mmHg 75%
19:00 +20°C° 0 mm 3 mps 748 mmHg 77%
20:00 +20°C° 0 mm 3 mps 748 mmHg 79%
21:00 +19°C° 0 mm 3 mps 748 mmHg 81%
22:00 +19°C° 0 mm 2 mps 748 mmHg 83%
23:00 +18°C° 0 mm 2 mps 748 mmHg 85%

27 June, Sunday

Time Temperature Precipitation Wind Pressure Humidity
00:00 +18°C° 0 mm 2 mps 748 mmHg 87%
01:00 +18°C° 0 mm 3 mps 748 mmHg 88%
02:00 +17°C° 0 mm 3 mps 748 mmHg 90%
03:00 +17°C° 0 mm 3 mps 748 mmHg 91%
04:00 +17°C° 0 mm 3 mps 749 mmHg 91%
05:00 +17°C° 0 mm 3 mps 749 mmHg 92%
06:00 +18°C° 0 mm 3 mps 749 mmHg 88%
07:00 +19°C° 0 mm 3 mps 749 mmHg 83%
08:00 +20°C° 0 mm 3 mps 749 mmHg 78%
09:00 +21°C° 0 mm 3 mps 749 mmHg 73%
10:00 +22°C° 0 mm 3 mps 749 mmHg 67%
11:00 +23°C° 0 mm 4 mps 750 mmHg 62%
12:00 +25°C° 0 mm 3 mps 749 mmHg 60%
13:00 +25°C° 0 mm 3 mps 749 mmHg 57%
14:00 +26°C° 0 mm 3 mps 749 mmHg 55%
15:00 +25°C° 0 mm 3 mps 749 mmHg 59%
16:00 +25°C° 0 mm 3 mps 749 mmHg 63%
17:00 +24°C° 0 mm 3 mps 749 mmHg 67%
18:00 +23°C° 0 mm 2 mps 749 mmHg 69%
19:00 +21°C° 0 mm 2 mps 749 mmHg 72%
20:00 +21°C° 0 mm 2 mps 749 mmHg 74%
21:00 +20°C° 0 mm 2 mps 749 mmHg 75%
22:00 +20°C° 0 mm 1 mps 749 mmHg 76%
23:00 +19°C° 0 mm 1 mps 749 mmHg 77%

28 June, Monday

Time Temperature Precipitation Wind Pressure Humidity
00:00 +18°C° 0 mm 1 mps 749 mmHg 80%
01:00 +18°C° 0 mm 1 mps 750 mmHg 82%
02:00 +16°C° 0 mm 1 mps 750 mmHg 84%
03:00 +16°C° 0 mm 1 mps 750 mmHg 84%
04:00 +16°C° 0 mm 1 mps 750 mmHg 85%
05:00 +16°C° 0 mm 1 mps 750 mmHg 85%
06:00 +18°C° 0 mm 1 mps 750 mmHg 80%
07:00 +19°C° 0 mm 2 mps 750 mmHg 75%
08:00 +21°C° 0 mm 2 mps 750 mmHg 70%
09:00 +23°C° 0 mm 2 mps 750 mmHg 66%
10:00 +24°C° 0 mm 2 mps 750 mmHg 61%
11:00 +26°C° 0 mm 2 mps 750 mmHg 56%
12:00 +26°C° 0 mm 2 mps 750 mmHg 54%
13:00 +27°C° 0 mm 2 mps 750 mmHg 53%
14:00 +27°C° 0 mm 2 mps 749 mmHg 51%
15:00 +27°C° 0 mm 2 mps 749 mmHg 53%
16:00 +27°C° 0 mm 2 mps 749 mmHg 56%
17:00 +27°C° 0 mm 2 mps 749 mmHg 58%
18:00 +25°C° 0 mm 2 mps 749 mmHg 62%
19:00 +24°C° 0 mm 2 mps 749 mmHg 67%
20:00 +23°C° 0 mm 2 mps 749 mmHg 71%
21:00 +21°C° 0 mm 2 mps 749 mmHg 73%
22:00 +20°C° 0 mm 2 mps 749 mmHg 74%
23:00 +19°C° 0 mm 2 mps 749 mmHg 76%
Show more